This is the latest recevied weather packets stored in our database for station/object IK1PCD-11. If no packets are shown the sender has not sent any weather packets the latest 10 day(s).
| Time | Temp. | Humidity | Pressure | Rain* | Wind** | Luminosity | Snow |
|---|---|---|---|---|---|---|---|
| 1777592022 | 1.67° C | 55% | 1022.3 hPa | - | - | - | - |
| 1777591122 | 2.22° C | 55% | 1022.2 hPa | - | - | - | - |
| 1777590222 | 1.67° C | 53% | 1022.3 hPa | - | - | - | - |
| 1777587522 | 1.67° C | 60% | 1022.3 hPa | - | - | - | - |
| 1777586621 | 1.67° C | 57% | 1022.2 hPa | - | - | - | - |
| 1777585722 | 1.67° C | 62% | 1022.2 hPa | - | - | - | - |
| 1777584821 | 1.67° C | 63% | 1022.1 hPa | - | - | - | - |
| 1777583921 | 1.67° C | 65% | 1022 hPa | - | - | - | - |
| 1777583021 | 1.67° C | 64% | 1022 hPa | - | - | - | - |
| 1777582121 | 1.67° C | 67% | 1021.9 hPa | - | - | - | - |
| 1777581221 | 1.67° C | 70% | 1021.8 hPa | - | - | - | - |
| 1777580321 | 1.67° C | 71% | 1022 hPa | - | - | - | - |
| 1777579421 | 1.67° C | 73% | 1021.7 hPa | - | - | - | - |
| 1777578521 | 2.22° C | 69% | 1021.5 hPa | - | - | - | - |
| 1777577621 | 2.78° C | 71% | 1021.5 hPa | - | - | - | - |
| 1777576721 | 3.33° C | 68% | 1021.4 hPa | - | - | - | - |
| 1777575820 | 3.89° C | 67% | 1021.2 hPa | - | - | - | - |
| 1777574923 | 6.11° C | 60% | 1021 hPa | - | - | - | - |
| 1777573018 | 7.78° C | 58% | 1020.6 hPa | - | - | - | - |
| 1777572118 | 8.89° C | 59% | 1020.6 hPa | - | - | - | - |
| 1777571218 | 10° C | 62% | 1020.5 hPa | - | - | - | - |
| 1777570318 | 10° C | 62% | 1020.5 hPa | - | - | - | - |
| 1777569418 | 11.11° C | 59% | 1020.4 hPa | - | - | - | - |
| 1777566717 | 11.67° C | 59% | 1020.3 hPa | - | - | - | - |
| 1777565817 | 12.78° C | 59% | 1020.3 hPa | - | - | - | - |
* Rain since midnight (hover to see other rain measurements)
** Current wind speed in m/s (hover to see current wind gust speed)